Погода в Ла Фрия

Венесуэла     8°14′17″N   72°16′12″W
темп.,
°C
ветер,
м/с
пор.,
м/с
влажн.,
%
обл.,
%
осадки,
мм/ч
давл.,
гПа
погр.,
м
9 мая, вс
вс923:00+23ю129193 1.7 101442
02:00+22юв1190100 1.7 101219
05:00+22ю1189100 0.0 101215
08:00+24ююз117918 0.0 1013134
11:00+28ссз216417 0.1 1013816
14:00+30с216159 0.8 10101077
17:00+28ссв1277100 3.3 1009115
20:00+23ююв1193100 9.3 101221
10 мая, пн
пн1023:00+22ю219191 0.4 101227
02:00+21юв1188100 0.4 101117
05:00+21ююв118565 0.0 101114
08:00+23юз118048 0.0 101299
11:00+29ссз215933 0.0 1012861
14:00+31с225450 0.3 10091343
17:00+30с116245 1.1 1007894
20:00+24ююв238773 2.9 101061
11 мая, вт
вт1123:00+22ююв229280 5.1 101228
02:00+22юв1191100 7.2 101116
05:00+21ю1190100 0.9 101118
08:00+23ююз018222 1.0 1012119
11:00+27с016844 0.0 1013491
14:00+32с325233 0.2 10091498
17:00+30ссв326327 0.9 10081017
20:00+24юв219186 8.0 101123
12 мая, ср
ср1223:00+22ююв229192 1.9 101236
02:00+21ююв118799 2.0 101122
05:00+21ю1182100 0.0 101119
08:00+24зюз117572 0.0 1012100
11:00+29с21576 0.0 1012686
14:00+32ссв435050 0.1 10091287
17:00+31ссв236056 0.4 1007885
20:00+25юв228563 2.1 101038
13 мая, чт
чт1323:00+22ю229133 2.6 101242
02:00+22ююв1184100 2.8 101119
05:00+22юз1284100 0.0 101135
08:00+24зюз017966 0.0 1012119
11:00+30ссз225867 0.0 1012790
14:00+32ссв435111 0.0 10091281
17:00+31ссв34619 0.3 10071026
20:00+25ююв2181100 1.1 100928